Location: Beccas
(43.4309°N, 0.1528°E)
Time: 09:54:27
(UTC+00:00)

Cosmos 1953 - Pass Details

Date: 15 October 2021
Orbit: 537 x 556 km, 82.5° (Epoch: 07 December)

Event Time Altitude Azimuth Distance (km) Brightness Sun altitude
Rises 18:15:46 0° 173° (S) 2,714 5.8 -11.6°
Reaches altitude 10° 18:17:58 10° 168° (SSE) 1,828 4.9 -12.0°
Maximum altitude 18:21:50 48° 94° (E) 729 2.5 -12.7°
Drops below altitude 10° 18:25:46 10° 19° (NNE) 1,850 4.8 -13.4°
Sets 18:28:00 0° 14° (NNE) 2,752 5.8 -13.8°
